Weather History for Hartford, CT

Change the Weather History Date:

Monday, December 9, 2013

  Actual Average Record
Temperature  
Mean Temperature 32 °F -  
Max Temperature 35 °F 42 °F 62 °F (1966)
Min Temperature 28 °F 25 °F 5 °F (1968)
Degree Days  
Heating Degree Days 34    
Moisture  
Dew Point 29 °F    
Average Humidity 90    
Maximum Humidity 96    
Minimum Humidity 69    
Precipitation  
Precipitation 0.14 in - - ()
Sea Level Pressure  
Sea Level Pressure 30.18 in    
Wind  
Wind Speed 7 mph (NNE)    
Max Wind Speed 9 mph    
Max Gust Speed -    
Visibility 3 miles    
Events Rain , Snow    
Averages and records for this station are not official NWS values.
T = Trace of Precipitation, MM = Missing Value Source: NWS Daily Summary

Daily Weather History Graph

Daily Weather History Graph

Search for Another Location

Airport:

Trip Planner

Search our weather history database for the weather conditions in past years. The results will help you decide how hot, cold, wet, or windy it might be!

Date:

Astronomy

Dec. 09, 2013 Rise Set
Actual Time 7:06 AM EST 4:19 PM EST
Civil Twilight 6:34 AM EST 4:51 PM EST
Nautical Twilight 5:59 AM EST 5:26 PM EST
Astronomical Twilight 5:26 AM EST 5:59 PM EST
Moon 11:52 AM EST (12/9) No Moon Set
Length of Visible Light 10h 16m
Length of Day
9h 13m
Waxing Crescent, 51% of the Moon is Illuminated
Dec 9
Waxing Crescent
Dec 17
Full
Dec 25
Last Quarter
Jan 1
New
Jan 7
First Quarter

Hourly Weather History & Observations

Time (EST) Temp. Windchill Dew Point Humidity Pressure Visibility Wind Dir Wind Speed Gust Speed Precip Events Conditions
12:34 AM 30.0 °F 22.4 °F 21.0 °F 69% 30.45 in 2.5 mi ENE 8.1 mph - 0.00 in Snow Light Snow
12:53 AM 28.9 °F 22.8 °F 23.0 °F 78% 30.45 in 2.0 mi NE 5.8 mph - 0.00 in Snow Light Snow
12:59 AM 28.0 °F 20.8 °F 23.0 °F 81% 30.44 in 1.8 mi NE 6.9 mph - 0.00 in Snow Light Snow
1:24 AM 28.0 °F 22.8 °F 24.1 °F 85% 30.43 in 2.5 mi ENE 4.6 mph - 0.01 in Snow Light Snow
1:39 AM 28.0 °F 20.8 °F 24.1 °F 85% 30.42 in 1.8 mi NE 6.9 mph - 0.01 in Snow Light Snow
1:51 AM 28.4 °F 22.2 °F 24.8 °F 86% 30.42 in 2.5 mi NE 5.8 mph - 0.01 in Snow Light Snow
1:53 AM 28.0 °F 20.8 °F 24.1 °F 85% 30.43 in 2.5 mi NNE 6.9 mph - 0.01 in Snow Light Snow
2:04 AM 28.0 °F 20.8 °F 24.1 °F 85% 30.42 in 1.8 mi NE 6.9 mph - 0.01 in Snow Light Snow
2:11 AM 28.0 °F 20.0 °F 24.1 °F 85% 30.43 in 2.0 mi NNE 8.1 mph - 0.01 in Snow Light Snow
2:53 AM 28.0 °F 20.8 °F 24.1 °F 85% 30.40 in 2.0 mi NE 6.9 mph - 0.01 in Snow Light Snow
3:00 AM 28.0 °F 20.8 °F 25.0 °F 88% 30.39 in 1.8 mi NNE 6.9 mph - 0.00 in Snow Light Snow
3:03 AM 28.0 °F 20.0 °F 24.1 °F 85% 30.40 in 2.0 mi NNE 8.1 mph - 0.00 in Snow Light Snow
3:12 AM 28.0 °F 20.8 °F 24.1 °F 85% 30.39 in 2.0 mi NNE 6.9 mph - 0.01 in Snow Light Snow
3:37 AM 28.0 °F 20.0 °F 24.1 °F 85% 30.37 in 3.0 mi NNE 8.1 mph - 0.01 in   Overcast
3:53 AM 28.0 °F 20.0 °F 25.0 °F 88% 30.37 in 4.0 mi North 8.1 mph - 0.01 in   Overcast
4:05 AM 28.0 °F 20.0 °F 25.0 °F 88% 30.36 in 2.5 mi North 8.1 mph - 0.00 in Rain Light Freezing Rain
4:22 AM 28.0 °F 20.0 °F 25.0 °F 88% 30.35 in 2.0 mi NNE 8.1 mph - 0.00 in Rain Light Freezing Rain
4:32 AM 28.0 °F 20.0 °F 25.0 °F 88% 30.35 in 2.5 mi NNE 8.1 mph - 0.00 in   Overcast
4:44 AM 28.0 °F 20.8 °F 25.0 °F 88% 30.34 in 3.0 mi North 6.9 mph - 0.00 in   Overcast
4:53 AM 28.0 °F 21.7 °F 25.0 °F 88% 30.33 in 3.0 mi North 5.8 mph - 0.00 in   Overcast
5:07 AM 28.0 °F 20.0 °F 26.1 °F 92% 30.32 in 3.0 mi North 8.1 mph - 0.00 in Rain Light Freezing Rain
5:30 AM 28.0 °F 20.0 °F 26.1 °F 92% 30.31 in 3.0 mi North 8.1 mph - 0.00 in Rain Light Freezing Rain
5:37 AM 28.0 °F 20.8 °F 26.1 °F 92% 30.31 in 4.0 mi North 6.9 mph - 0.00 in   Overcast
5:46 AM 28.9 °F 21.9 °F 26.1 °F 89% 30.30 in 3.0 mi North 6.9 mph - 0.00 in   Overcast
5:53 AM 28.9 °F 21.1 °F 26.1 °F 89% 30.29 in 3.0 mi North 8.1 mph - 0.00 in   Overcast
6:01 AM 28.9 °F 21.1 °F 26.1 °F 89% 30.29 in 4.0 mi North 8.1 mph - N/A   Overcast
6:08 AM 28.9 °F 21.9 °F 26.1 °F 89% 30.28 in 4.0 mi North 6.9 mph - N/A   Overcast
6:19 AM 28.9 °F 22.8 °F 26.1 °F 89% 30.28 in 4.0 mi North 5.8 mph - 0.00 in   Overcast
6:26 AM 28.9 °F 21.1 °F 26.1 °F 89% 30.27 in 4.0 mi North 8.1 mph - 0.00 in Rain Light Freezing Rain
6:46 AM 28.9 °F 21.1 °F 27.0 °F 92% 30.24 in 2.0 mi North 8.1 mph - 0.01 in Rain Light Freezing Rain
6:53 AM 30.0 °F 23.2 °F 28.0 °F 92% 30.24 in 2.0 mi North 6.9 mph - 0.01 in Rain Light Freezing Rain
7:05 AM 30.0 °F 24.1 °F 27.0 °F 88% 30.24 in 3.0 mi North 5.8 mph - 0.01 in Rain Light Freezing Rain
7:19 AM 30.0 °F 21.7 °F 28.0 °F 92% 30.24 in 2.5 mi NNW 9.2 mph - 0.01 in Rain Light Freezing Rain
7:38 AM 30.0 °F 23.2 °F 28.0 °F 92% 30.21 in 1.8 mi North 6.9 mph - 0.03 in Rain Light Freezing Rain
7:49 AM 30.2 °F 22.6 °F 28.4 °F 93% 30.22 in 1.2 mi North 8.1 mph - 0.04 in Rain Light Freezing Rain
7:53 AM 30.0 °F 22.4 °F 28.0 °F 92% 30.22 in 1.2 mi North 8.1 mph - 0.04 in Rain Light Freezing Rain
8:53 AM 30.9 °F 23.5 °F 28.9 °F 92% 30.21 in 1.5 mi NNW 8.1 mph - 0.04 in Rain Light Freezing Rain
9:37 AM 32.0 °F 24.2 °F 30.0 °F 92% 30.19 in 1.5 mi North 9.2 mph - 0.01 in   Overcast
9:53 AM 32.0 °F 25.6 °F 30.0 °F 92% 30.18 in 1.2 mi North 6.9 mph - 0.01 in   Overcast
10:00 AM 32.0 °F 24.2 °F 30.0 °F 92% 30.17 in 1.2 mi North 9.2 mph - 0.00 in Rain Light Freezing Rain
10:16 AM 32.0 °F 24.2 °F 30.0 °F 92% 30.18 in 2.0 mi North 9.2 mph - 0.00 in   Overcast
10:37 AM 32.0 °F 25.6 °F 30.0 °F 92% 30.14 in 2.0 mi North 6.9 mph - 0.00 in   Overcast
10:44 AM 32.0 °F 25.6 °F 30.0 °F 92% 30.14 in 1.2 mi North 6.9 mph - 0.00 in   Overcast
10:53 AM 32.0 °F 24.8 °F 30.0 °F 92% 30.13 in 1.2 mi North 8.1 mph - 0.00 in   Overcast
11:53 AM 33.1 °F 25.5 °F 30.9 °F 92% 30.08 in 1.2 mi North 9.2 mph - 0.01 in   Overcast
12:25 PM 33.1 °F 26.1 °F 32.0 °F 96% 30.03 in 0.8 mi North 8.1 mph - N/A   Overcast
12:32 PM 33.1 °F 26.1 °F 32.0 °F 96% 30.02 in 1.0 mi North 8.1 mph - N/A   Overcast
12:53 PM 34.0 °F 28.0 °F 32.0 °F 92% 30.02 in 1.2 mi North 6.9 mph - N/A   Overcast
1:53 PM 34.0 °F 26.6 °F 32.0 °F 92% 29.99 in 1.5 mi NNW 9.2 mph - N/A   Overcast
2:34 PM 34.0 °F 28.0 °F 32.0 °F 92% 29.96 in 0.8 mi North 6.9 mph - 0.00 in   Overcast
2:41 PM 34.0 °F 28.0 °F 32.0 °F 92% 29.96 in 1.2 mi North 6.9 mph - 0.00 in   Overcast
2:53 PM 34.0 °F 26.6 °F 32.0 °F 92% 29.96 in 2.0 mi North 9.2 mph - 0.00 in   Overcast
3:19 PM 35.1 °F 29.3 °F 32.0 °F 89% 29.97 in 3.0 mi NNW 6.9 mph - N/A   Overcast
3:38 PM 35.1 °F 29.3 °F 32.0 °F 89% 29.98 in 5.0 mi NNW 6.9 mph - N/A   Overcast
3:53 PM 35.1 °F 30.1 °F 33.1 °F 92% 29.97 in 4.0 mi North 5.8 mph - N/A   Overcast
4:10 PM 35.1 °F 32.2 °F 33.1 °F 92% 29.96 in 2.5 mi North 3.5 mph - N/A   Overcast
4:26 PM 35.1 °F 31.0 °F 33.1 °F 92% 29.96 in 4.0 mi North 4.6 mph - N/A   Overcast
4:53 PM 35.1 °F 32.2 °F 33.1 °F 92% 29.96 in 7.0 mi NNW 3.5 mph - N/A   Overcast
5:53 PM 35.1 °F 32.2 °F 33.1 °F 92% 29.95 in 7.0 mi WSW 3.5 mph - N/A   Overcast
6:53 PM 35.1 °F 31.0 °F 33.1 °F 92% 29.94 in 5.0 mi SSE 4.6 mph - N/A   Overcast
7:12 PM 34.0 °F 28.8 °F 33.1 °F 96% 29.94 in 3.0 mi South 5.8 mph - N/A   Overcast
7:26 PM 35.1 °F - 33.1 °F 92% 29.95 in 4.0 mi Calm Calm - N/A   Mostly Cloudy
7:53 PM 35.1 °F 31.0 °F 33.1 °F 92% 29.96 in 4.0 mi SSW 4.6 mph - N/A   Overcast
8:07 PM 35.1 °F 31.0 °F 33.1 °F 92% 29.96 in 4.0 mi SSW 4.6 mph - N/A   Mostly Cloudy
8:22 PM 35.1 °F 30.1 °F 33.1 °F 92% 29.96 in 4.0 mi SSE 5.8 mph - N/A   Scattered Clouds
8:53 PM 35.1 °F 30.1 °F 33.1 °F 92% 29.96 in 4.0 mi South 5.8 mph - N/A   Clear
9:40 PM 32.0 °F 28.7 °F 30.9 °F 96% 29.96 in 2.0 mi SSE 3.5 mph - N/A   Clear
9:53 PM 33.1 °F 30.0 °F 30.9 °F 92% 29.96 in 3.0 mi SSE 3.5 mph - N/A   Clear
10:15 PM 32.0 °F 27.5 °F 30.9 °F 96% 29.96 in 2.0 mi SSE 4.6 mph - N/A   Clear
10:29 PM 34.0 °F 28.8 °F 32.0 °F 92% 29.96 in 5.0 mi South 5.8 mph - N/A   Clear
10:53 PM 33.1 °F 28.7 °F 32.0 °F 96% 29.95 in 4.0 mi South 4.6 mph - N/A   Clear
11:53 PM 33.1 °F 30.0 °F 30.9 °F 92% 29.96 in 6.0 mi SE 3.5 mph - N/A   Clear